Location: ???????
(56.2167°N, 38.0500°E)
Time: 08:09:08
(UTC+00:00)

Cosmos 2369 - Pass Details

Date: 19 May 2025
Orbit: 840 x 852 km, 71.0° (Epoch: 23 June)

Event Time Altitude Azimuth Distance (km) Brightness Sun altitude
Rises 19:47:19 0° 324° (NW) 3,418 8.7 -11.1°
Reaches altitude 10° 19:49:49 10° 320° (NW) 2,477 7.5 -11.3°
Maximum altitude 19:55:21 56° 244° (WSW) 999 4.1 -11.5°
Enters shadow 19:59:51 15° 170° (S) 2,096 5.1 -11.8°
